(185281) = 2004 GW43 = 2006 UA196

Discovered at Kitt Peak on 2006-10-20 by Spacewatch.

Orbit

Orbit type: Main Belt

Note: WebGL enabled browser required.

epoch2023-09-13.0
epoch JD2460200.5
perihelion date2023-07-08.22178
perihelion JD2460133.72178
argument of perihelion (°)12.69404
ascending node (°)29.89112
inclination (°)2.93884
eccentricity0.1045363
perihelion distance (AU)2.3205779
Tisserand w.r.t. Jupiter3.4
ΔV w.r.t. Earth (km/sec)9.6
semimajor axis (AU)2.5914819
mean anomaly (°)15.77671
mean daily motion (°/day)0.23625530
aphelion distance (AU)2.862
period (years)4.17
P-vector [x]0.73641640
P-vector [y]0.61613526
P-vector [z]0.27940691
Q-vector [x]-0.67604589
Q-vector [y]0.65460062
Q-vector [z]0.33831935
absolute magnitude16.59
phase slope0.15
uncertainty0
referenceMPEC 2024-B63
observations used520
oppositions14
arc length (days)7726
first opposition used2002
last opposition used2024
residual rms (arc-secs)0.78
perturbers coarse indicatorM-v
perturbers precise indicator003Ek
first observation date used2002-11-24.0
last observation date used2024-01-19.0
computer nameMPCLINUX
JD of orbit computation2456966.703236
perihelion JD uncertainty (days)1.7711E-04
argument of perihelion uncertainty (°)8.2744E-05
ascending node uncertainty (°)7.1007E-05
inclination uncertainty (°)5.4721E-06
eccentricity uncertainty 7.4515E-08
perihelion distance uncertainty (AU)2.0629E-07
Minimum Orbit Intersection Distances (in AU)
for orbit epoch: 2460200.5, reference: E2024-B63
Mercury1.99795
Venus1.59833
Earth1.32814
Mars0.82052
Jupiter2.49256
Saturn6.60727
Uranus15.6888
Neptune27.5019

Observations

534 total observations over interval: 2002 11 24.41187 – 2024 01 19.090856
These data are available for download (format description).

Date (UT) J2000 RA J2000 Dec Magn Location Ref
2002 11 24.41187 04 39 25.78 +25 15 34.6 19.7   644 – Palomar Mountain/NEAT MPS 185746
2002 11 24.43330 04 39 24.39 +25 15 34.0 19.5   644 – Palomar Mountain/NEAT MPS 185746
2002 11 24.45492 04 39 23.05 +25 15 33.3 19.8   644 – Palomar Mountain/NEAT MPS 185746
2004 04 12.23049 12 11 22.17 +00 28 35.5 21.4 V 691 – Steward Observatory, Kitt Peak-Spacewatch MPS 105236
2004 04 12.25818 12 11 20.86 +00 28 41.9 21.4 V 691 – Steward Observatory, Kitt Peak-Spacewatch MPS 105236
2004 04 12.28664 12 11 19.51 +00 28 48.4 21.6 V 691 – Steward Observatory, Kitt Peak-Spacewatch MPS 105236
2004 04 19.13080 12 06 31.24 +00 51 32.3 21.1 V 691 – Steward Observatory, Kitt Peak-Spacewatch MPS 105236
2004 04 19.15739 12 06 30.18 +00 51 36.7 21.4 V 691 – Steward Observatory, Kitt Peak-Spacewatch MPS 105236
2004 04 19.18386 12 06 29.12 +00 51 41.4 21.1 V 691 – Steward Observatory, Kitt Peak-Spacewatch MPS 105236
2006 07 21.44036 02 24 24.51 +13 23 56.5 21.1 V G96 – Mt. Lemmon Survey MPS 185746
2006 07 21.44483 02 24 24.87 +13 23 58.4 21.3 V G96 – Mt. Lemmon Survey MPS 185746
2006 07 21.44928 02 24 25.23 +13 24 00.1 21.3 V G96 – Mt. Lemmon Survey MPS 185746
2006 07 21.45389 02 24 25.63 +13 24 01.5 19.8 V G96 – Mt. Lemmon Survey MPS 185746
2006 10 12.31656 03 08 28.41 +18 14 06.7   691 – Steward Observatory, Kitt Peak-Spacewatch MPS 185746
2006 10 12.33390 03 08 27.76 +18 14 06.0   691 – Steward Observatory, Kitt Peak-Spacewatch MPS 185746
2006 10 12.35175 03 08 27.08 +18 14 05.5   691 – Steward Observatory, Kitt Peak-Spacewatch MPS 185746
2006 10 20.33476 03 02 57.68 +18 05 27.9 19.8 V 691 – Steward Observatory, Kitt Peak-Spacewatch MPS 185746
2006 10 20.35210 03 02 56.83 +18 05 26.4 19.8 V 691 – Steward Observatory, Kitt Peak-Spacewatch MPS 185746
2006 10 20.36945 03 02 55.98 +18 05 24.7 19.9 V 691 – Steward Observatory, Kitt Peak-Spacewatch MPS 185746
2006 10 22.49641 03 01 12.53 +18 01 58.0 19.5 R 644 – Palomar Mountain/NEAT MPS 185746
2006 10 22.51793 03 01 11.44 +18 01 55.6 19.3 R 644 – Palomar Mountain/NEAT MPS 185746
2006 10 22.54328 03 01 10.12 +18 01 52.7 19.6 R 644 – Palomar Mountain/NEAT MPS 185746
2006 10 28.32336 02 56 04.97 +17 50 24.7 19.7 V 691 – Steward Observatory, Kitt Peak-Spacewatch MPS 185746
2006 10 28.34076 02 56 03.94 +17 50 22.4 19.7 V 691 – Steward Observatory, Kitt Peak-Spacewatch MPS 185746
2006 10 28.35870 02 56 02.90 +17 50 20.2 19.8 V 691 – Steward Observatory, Kitt Peak-Spacewatch MPS 185746
2006 11 01.32234 02 52 18.13 +17 40 55.1 19.5 V 691 – Steward Observatory, Kitt Peak-Spacewatch MPS 185746
2006 11 01.34310 02 52 16.89 +17 40 52.1 19.6 V 691 – Steward Observatory, Kitt Peak-Spacewatch MPS 185746
2006 11 01.36036 02 52 15.85 +17 40 49.4 19.5 V 691 – Steward Observatory, Kitt Peak-Spacewatch MPS 185746
2006 11 08.39850 02 45 23.83 +17 21 55.5 18.6 R 644 – Palomar Mountain/NEAT MPS 190610
2006 11 08.42018 02 45 22.52 +17 21 51.8 18.8 R 644 – Palomar Mountain/NEAT MPS 190610
2006 11 08.44058 02 45 21.29 +17 21 48.1 18.9 R 644 – Palomar Mountain/NEAT MPS 190610
2006 11 09.31376 02 44 30.46 +17 19 20.3 19.0 R 644 – Palomar Mountain/NEAT MPS 190610
2006 11 09.33457 02 44 29.19 +17 19 16.8 19.0 R 644 – Palomar Mountain/NEAT MPS 190610
2006 11 09.35660 02 44 27.86 +17 19 12.9 18.9 R 644 – Palomar Mountain/NEAT MPS 190610
2006 11 10.29191 02 43 33.48 +17 16 33.1 19.3 R 644 – Palomar Mountain/NEAT MPS 188836
2006 11 10.30161 02 43 32.88 +17 16 31.4 19.4 R 644 – Palomar Mountain/NEAT MPS 188836
2006 11 10.30403 02 43 32.75 +17 16 31.2 19.4 R 644 – Palomar Mountain/NEAT MPS 188836
2006 11 10.30522 02 43 32.68 +17 16 31.0 19.0 R 644 – Palomar Mountain/NEAT MPS 188836
2006 11 10.31629 02 43 32.01 +17 16 29.2 19.4 R 644 – Palomar Mountain/NEAT MPS 188836
2006 11 10.32119 02 43 31.70 +17 16 28.1 19.3 R 644 – Palomar Mountain/NEAT MPS 188836
2006 11 10.32490 02 43 31.48 +17 16 27.9 19.3 R 644 – Palomar Mountain/NEAT MPS 188836
2006 11 10.32982 02 43 31.20 +17 16 26.4 19.4 R 644 – Palomar Mountain/NEAT MPS 188836
2006 11 10.34557 02 43 30.24 +17 16 23.2 19.1 R 644 – Palomar Mountain/NEAT MPS 188836
2006 11 11.28664 02 42 35.82 +17 13 41.5 18.5 V 703 – Catalina Sky Survey MPS 187187
2006 11 11.29771 02 42 35.13 +17 13 39.8 19.1 V 703 – Catalina Sky Survey MPS 187187
2006 11 11.30878 02 42 34.52 +17 13 38.3 18.8 V 703 – Catalina Sky Survey MPS 187187
2006 11 11.31984 02 42 33.84 +17 13 36.6 19.1 V 703 – Catalina Sky Survey MPS 187187
2006 11 15.23451 02 38 51.86 +17 02 20.4 19.4 V G96 – Mt. Lemmon Survey MPS 187187
2006 11 15.24131 02 38 51.46 +17 02 19.2 19.3 V G96 – Mt. Lemmon Survey MPS 187187
2006 11 15.24821 02 38 51.07 +17 02 17.8 19.4 V G96 – Mt. Lemmon Survey MPS 187187
2006 11 15.25502 02 38 50.67 +17 02 16.7 19.4 V G96 – Mt. Lemmon Survey MPS 187187
2006 11 17.30696 02 36 58.24 +16 56 28.0 19.3 V 703 – Catalina Sky Survey MPS 188836
2006 11 17.31397 02 36 57.88 +16 56 26.4 18.9 V 703 – Catalina Sky Survey MPS 188836
2006 11 17.32097 02 36 57.45 +16 56 25.0 19.1 V 703 – Catalina Sky Survey MPS 188836
2006 11 17.32802 02 36 57.13 +16 56 23.8 19.1 V 703 – Catalina Sky Survey MPS 188836
2006 11 18.26453 02 36 07.24 +16 53 45.2 19.2   704 – Lincoln Laboratory ETS, New Mexico MPS 188836
2006 11 18.27683 02 36 06.52 +16 53 43.0 20.0   704 – Lincoln Laboratory ETS, New Mexico MPS 188836
2006 11 18.28925 02 36 05.82 +16 53 41.0 19.7   704 – Lincoln Laboratory ETS, New Mexico MPS 188836
2006 11 18.30157 02 36 05.18 +16 53 38.5 19.9   704 – Lincoln Laboratory ETS, New Mexico MPS 188836
2006 11 18.31390 02 36 04.48 +16 53 37.1 19.9   704 – Lincoln Laboratory ETS, New Mexico MPS 188836
2006 11 21.19002 02 33 36.95 +16 45 45.7 18.8   704 – Lincoln Laboratory ETS, New Mexico MPS 188836
2006 11 21.20225 02 33 36.44 +16 45 42.9 20.1   704 – Lincoln Laboratory ETS, New Mexico MPS 188836
2006 11 21.21459 02 33 35.78 +16 45 41.8 20.0   704 – Lincoln Laboratory ETS, New Mexico MPS 188836
2006 11 21.22684 02 33 34.93 +16 45 36.5 20.0   704 – Lincoln Laboratory ETS, New Mexico MPS 188836
2006 11 21.23910 02 33 34.32 +16 45 38.7 19.7   704 – Lincoln Laboratory ETS, New Mexico MPS 188836
2006 11 27.21875 02 29 00.56 +16 30 49.2 19.8 V 703 – Catalina Sky Survey MPS 190610
2006 11 27.22884 02 29 00.06 +16 30 48.0 19.3 V 703 – Catalina Sky Survey MPS 190610
2006 11 27.23896 02 28 59.62 +16 30 46.3 19.8 V 703 – Catalina Sky Survey MPS 190610
2006 11 27.24910 02 28 59.19 +16 30 45.7 19.8 V 703 – Catalina Sky Survey MPS 190610
2006 12 15.20653 02 21 09.25 +16 07 14.7 19.8 V G96 – Mt. Lemmon Survey MPS 192370
2006 12 15.21426 02 21 09.18 +16 07 14.4 19.8 V G96 – Mt. Lemmon Survey MPS 192370
2006 12 15.22167 02 21 09.07 +16 07 14.3 19.9 V G96 – Mt. Lemmon Survey MPS 192370
2006 12 15.22942 02 21 08.96 +16 07 14.4 19.8 V G96 – Mt. Lemmon Survey MPS 192370
2008 02 02.36937 11 53 17.91 +04 06 02.4 20.8 V G96 – Mt. Lemmon Survey MPS 236333
2008 02 02.37492 11 53 17.84 +04 06 02.9 20.9 V G96 – Mt. Lemmon Survey MPS 236333
2008 02 02.38053 11 53 17.70 +04 06 04.3 21.1 V G96 – Mt. Lemmon Survey MPS 236333
2008 02 02.38610 11 53 17.59 +04 06 04.7 20.8 V G96 – Mt. Lemmon Survey MPS 236333
2008 02 29.24512 11 36 54.01 +05 50 41.2   691 – Steward Observatory, Kitt Peak-Spacewatch MPS 239501
2008 02 29.26274 11 36 53.11 +05 50 47.3   691 – Steward Observatory, Kitt Peak-Spacewatch MPS 239501
2008 02 29.28037 11 36 52.16 +05 50 52.2   691 – Steward Observatory, Kitt Peak-Spacewatch MPS 239501
2008 04 03.13404 11 08 33.94 +08 15 29.4 20.3 V 691 – Steward Observatory, Kitt Peak-Spacewatch MPS 244761
2008 04 03.15298 11 08 33.16 +08 15 32.6 20.5 V 691 – Steward Observatory, Kitt Peak-Spacewatch MPS 244761
2008 04 03.17193 11 08 32.38 +08 15 35.0 20.2 V 691 – Steward Observatory, Kitt Peak-Spacewatch MPS 244761
2008 04 07.14106 11 06 08.65 +08 24 44.4 20.7 V 691 – Steward Observatory, Kitt Peak-Spacewatch MPS 245793
2008 04 07.15742 11 06 08.08 +08 24 46.3 20.8 V 691 – Steward Observatory, Kitt Peak-Spacewatch MPS 245793
2008 04 07.17111 11 06 07.60 +08 24 48.2 20.7 V 691 – Steward Observatory, Kitt Peak-Spacewatch MPS 245793
2008 04 13.15313 11 03 10.83 +08 34 08.0 20.8 V G96 – Mt. Lemmon Survey MPS 246796
2008 04 13.15919 11 03 10.69 +08 34 08.4 20.7 V G96 – Mt. Lemmon Survey MPS 246796
